QPF
0.00 0.00 0.00 0.00 0.00 0.00 0.00 0.00 0.00 0.00 0.00 0.00 0.00 0.00 0.00 0.00 0.00 0.00 0.00 0.00 0.00 0.00 0.00 0.00 0.00 0.00 0.00 0.00 0.00 0.00 0.00 0.00 0.00 0.00 0.00 0.00 0.00 0.00 0.00 0.00 0.00 0.00
0.00 0.00 0.00 0.00 0.00 0.00 0.00 0.00 0.00 0.00 0.00 0.00 0.00 0.00 0.00 0.00 0.00 0.00 0.00 0.00 0.00 0.00 0.00 0.00 0.00 0.00 0.00 0.00 0.00 0.00 0.00 0.00 0.00 0.00 0.00 0.00 0.00 0.00 0.00 0.00 0.00 0.00
0.00 0.00 0.00 0.00 0.00 0.00 0.00 0.00 0.00 0.00 0.00 0.00 0.00 0.00 0.00 0.00 0.00 0.00 0.00 0.00 0.00 0.00 0.00 0.00 0.00 0.00 0.00 0.00 0.00 0.00 0.00 0.00 0.00 0.00 0.00 0.00 0.00 0.00 0.00 0.00 0.00 0.00
0.00 0.00 0.00 0.00 0.00 0.00 0.00 0.00 0.00 0.00 0.00 0.00 0.00 0.00 0.00 0.00 0.00 0.00 0.00 0.00 0.00 0.00 0.00 0.00 0.00 0.00 0.00 0.00 0.00 0.00 0.00 0.00 0.00 0.00 0.00 0.00 0.00 0.00 0.00 0.00 0.00 0.00
0.00 0.00 0.00 0.00 0.00 0.00 0.00 0.00 0.00 0.00 0.00 0.00 0.00 0.00 0.00 0.00 0.00 0.00 0.00 0.00 0.00 0.00 0.00 0.00 0.00 0.00 0.00 0.00 0.00 0.00 0.00 0.00 0.00 0.00 0.00 0.00 0.00 0.00 0.00 0.00 0.00 0.00
0.00 0.00 0.00 0.00 0.00 0.00 0.00 0.00 0.00 0.00 0.00 0.00 0.00 0.00 0.00 0.00 0.00 0.00 0.00 0.00 0.00 0.00 0.00 0.00 0.00 0.00 0.00 0.00 0.00 0.00 0.00 0.00 0.00 0.00 0.00 0.00 0.00 0.00 0.00 0.00 0.00 0.00
0.00 0.00 0.00 0.00 0.00 0.00 0.00 0.00 0.00 0.00 0.00 0.00 0.00 0.00 0.00 0.00 0.00 0.00 0.00 0.00 0.00 0.00 0.00 0.00 0.00 0.00 0.00 0.00 0.00 0.00 0.00 0.00 0.00 0.00 0.00 0.00 0.00 0.00 0.00 0.00 0.00 0.00
0.00 0.00 0.00 0.00 0.00 0.00 0.00 0.00 0.00 0.00 0.00 0.00 0.00 0.00 0.00 0.00 0.00 0.00 0.00 0.00 0.00 0.00 0.00 0.00 0.00 0.00 0.00 0.00 0.00 0.00 0.00 0.00 0.00 0.00 0.00 0.00 0.00 0.00 0.00 0.00 0.00 0.00
0.00 0.00 0.00 0.00 0.00 0.00 0.00 0.00 0.00 0.00 0.00 0.00 0.00 0.00 0.00 0.00 0.00 0.00 0.00 0.00 0.00 0.00 0.00 0.00 0.00 0.00 0.00 0.00 0.00 0.00 0.00 0.00 0.00 0.00 0.00 0.00 0.00 0.00 0.00 0.00 0.00 0.00
0.00 0.00 0.00 0.00 0.00 0.00 0.00 0.00 0.00 0.00 0.00 0.00 0.00 0.00 0.00 0.00 0.00 0.00 0.00 0.00 0.00 0.00 0.00 0.00 0.00 0.00 0.00 0.00 0.00 0.00 0.00 0.00 0.00 0.00 0.00 0.00 0.00 0.00 0.00 0.00 0.00 0.00
0.00 0.00 0.00 0.00 0.00 0.00 0.00 0.00 0.00 0.00 0.00 0.00 0.00 0.00 0.00 0.00 0.00 0.00 0.00 0.00 0.00 0.00 0.00 0.00 0.00 0.00 0.00 0.00 0.00 0.00 0.00 0.00 0.00 0.00 0.00 0.00 0.00 0.00 0.00 0.00 0.00 0.00
0.04 0.06 0.00 0.00 0.00 0.00 0.00 0.00 0.00 0.00 0.00 0.00 0.00 0.00 0.00 0.00 0.00 0.00 0.00 0.00 0.00 0.00 0.00 0.00 0.00 0.00 0.00 0.00 0.00 0.00 0.00 0.00 0.00 0.00 0.00 0.00 0.00 0.00 0.00 0.00 0.00 0.00
0.09 0.23 0.27 0.05 0.00 0.00 0.00 0.00 0.00 0.00 0.00 0.00 0.00 0.00 0.00 0.00 0.00 0.00 0.00 0.00 0.00 0.00 0.00 0.00 0.00 0.00 0.00 0.00 0.00 0.00 0.00 0.00 0.00 0.00 0.00 0.00 0.00 0.00 0.00 0.00 0.00 0.00
0.07 0.02 0.01 0.00 0.00 0.00 0.00 0.00 0.00 0.00 0.00 0.00 0.00 0.00 0.00 0.00 0.00 0.00 0.00 0.00 0.00 0.00 0.00 0.00 0.00 0.00 0.00 0.00 0.00 0.00 0.00 0.00 0.00 0.00 0.00 0.00 0.00 0.00 0.00 0.00 0.00 0.00
0.05 0.13 0.04 0.00 0.00 0.00 0.00 0.00 0.00 0.00 0.00 0.00 0.00 0.00 0.00 0.00 0.00 0.00 0.00 0.00 0.00 0.00 0.00 0.00 0.00 0.00 0.00 0.00 0.00 0.00 0.00 0.00 0.00 0.00 0.00 0.00 0.00 0.00 0.01 0.00 0.02 0.03
0.01 0.01 0.02 0.00 0.00 0.00 0.00 0.00 0.00 0.00 0.00 0.00 0.00 0.00 0.00 0.00 0.00 0.00 0.00 0.00 0.00 0.00 0.00 0.00 0.00 0.00 0.00 0.00 0.00 0.00 0.00 0.00 0.00 0.00 0.05 0.06 0.01 0.01 0.08 0.04 0.00 0.00
0.01 0.00 0.00 0.00 0.00 0.00 0.00 0.00 0.00 0.00 0.00 0.00 0.00 0.00 0.00 0.00 0.00 0.00 0.00 0.00 0.00 0.00 0.00 0.00 0.00 0.00 0.00 0.00 0.00 0.00 0.00 0.00 0.00 0.03 0.12 0.05 0.04 0.01 0.00 0.00 0.00 0.00
0.00 0.00 0.00 0.00 0.00 0.00 0.00 0.00 0.00 0.00 0.00 0.00 0.00 0.00 0.00 0.00 0.00 0.00 0.00 0.00 0.00 0.00 0.00 0.00 0.00 0.00 0.00 0.00 0.00 0.00 0.00 0.00 0.01 0.01 0.12 0.13 0.11 0.05 0.09 0.02 0.00 0.00
0.01 0.00 0.00 0.00 0.00 0.00 0.00 0.00 0.00 0.00 0.00 0.00 0.00 0.00 0.00 0.00 0.00 0.00 0.00 0.00 0.00 0.00 0.00 0.00 0.00 0.00 0.00 0.00 0.00 0.00 0.00 0.01 0.03 0.09 0.09 0.04 0.02 0.01 0.03 0.04 0.01 0.00
0.25 0.23 0.43 0.27 0.22 0.11 0.05 0.02 0.00 0.00 0.00 0.00 0.00 0.00 0.00 0.00 0.00 0.00 0.00 0.00 0.00 0.00 0.00 0.00 0.00 0.00 0.00 0.00 0.00 0.00 0.00 0.01 0.01 0.00 0.00 0.00 0.00 0.00 0.00 0.00 0.00 0.00
0.11 0.02 0.02 0.08 0.07 0.05 0.00 0.00 0.00 0.00 0.00 0.00 0.00 0.00 0.00 0.00 0.00 0.00 0.00 0.00 0.00 0.00 0.00 0.00 0.00 0.00 0.00 0.00 0.00 0.00 0.00 0.00 0.00 0.00 0.00 0.00 0.00 0.00 0.00 0.00 0.00 0.00
0.02 0.01 0.01 0.06 0.34 0.06 0.01 0.01 0.00 0.00 0.00 0.00 0.00 0.00 0.00 0.00 0.00 0.00 0.00 0.00 0.00 0.00 0.00 0.00 0.00 0.00 0.00 0.00 0.00 0.00 0.00 0.00 0.00 0.00 0.00 0.00 0.00 0.01 0.00 0.00 0.00 0.00
0.01 0.01 0.00 0.01 0.07 0.14 0.26 0.75 0.40 0.09 0.01 0.00 0.00 0.00 0.00 0.00 0.00 0.00 0.00 0.00 0.00 0.00 0.00 0.00 0.00 0.00 0.00 0.00 0.00 0.00 0.00 0.01 0.00 0.00 0.00 0.00 0.00 0.01 0.01 0.01 0.00 0.00
0.05 0.02 0.05 0.50 0.12 0.11 0.13 0.12 0.12 0.08 0.02 0.00 0.00 0.00 0.00 0.00 0.00 0.03 1.00 0.61 0.01 0.01 0.00 0.00 0.00 0.00 0.00 0.00 0.00 0.01 0.01 0.01 0.00 0.00 0.00 0.00 0.00 0.00 0.00 0.00 0.00 0.00
0.13 0.21 0.32 0.23 0.03 0.01 0.00 0.01 0.01 0.01 0.01 0.00 0.00 0.02 0.02 0.03 0.05 0.26 0.82 0.63 0.21 0.08 0.05 0.02 0.01 0.00 0.00 0.00 0.00 0.00 0.00 0.00 0.00 0.00 0.00 0.00 0.00 0.00 0.00 0.00 0.00 0.00
0.05 0.06 0.20 0.02 0.03 0.00 0.00 0.00 0.00 0.00 0.00 0.00 0.00 0.00 0.08 0.23 0.52 0.47 0.51 0.40 0.14 0.24 0.38 0.31 0.18 0.09 0.07 0.02 0.01 0.00 0.00 0.00 0.00 0.00 0.00 0.00 0.01 0.00 0.00 0.00 0.00 0.00
MSLP
1018.48 1018.60 1018.84 1019.00 1019.08 1019.08 1019.24 1019.40 1019.44 1019.56 1019.56 1019.52 1019.68 1019.60 1019.60 1019.44 1019.36 1019.44 1019.52 1019.56 1019.60 1019.68 1019.68 1019.68 1019.72 1019.80 1019.76 1019.80 1019.84 1019.96 1020.04 1020.04 1020.04 1020.00 1020.12 1020.08 1020.16 1020.24 1020.36 1020.32 1020.28 1020.36
1018.48 1018.48 1018.56 1018.72 1018.88 1018.88 1018.96 1019.00 1019.20 1019.32 1019.40 1019.40 1019.36 1019.32 1019.28 1019.24 1019.24 1019.28 1019.44 1019.52 1019.52 1019.60 1019.52 1019.56 1019.60 1019.68 1019.80 1019.88 1019.92 1020.08 1020.12 1020.08 1020.20 1019.88 1020.12 1020.12 1020.16 1020.16 1020.24 1020.28 1020.32 1020.24
1018.44 1018.52 1018.60 1018.80 1018.88 1018.88 1018.88 1018.88 1018.96 1019.08 1019.16 1019.12 1019.04 1019.12 1019.12 1019.00 1019.16 1019.16 1019.24 1019.32 1019.48 1019.52 1019.52 1019.48 1019.56 1019.56 1019.68 1019.80 1019.88 1020.00 1020.12 1020.16 1020.24 1020.00 1020.00 1020.12 1020.08 1020.20 1020.20 1020.20 1020.20 1020.24
1018.32 1018.32 1018.48 1018.60 1018.64 1018.76 1018.72 1018.88 1018.88 1018.92 1018.92 1019.08 1019.04 1018.88 1018.88 1018.84 1018.84 1019.08 1019.16 1019.16 1019.36 1019.44 1019.44 1019.44 1019.52 1019.52 1019.56 1019.68 1019.80 1020.00 1020.04 1020.08 1020.00 1019.96 1020.12 1020.04 1020.04 1020.12 1020.20 1020.16 1020.20 1020.20
1018.20 1018.28 1018.32 1018.44 1018.48 1018.56 1018.68 1018.88 1018.92 1018.88 1018.92 1018.80 1018.76 1018.76 1018.80 1018.80 1018.88 1019.00 1019.08 1019.16 1019.20 1019.36 1019.40 1019.48 1019.44 1019.52 1019.52 1019.68 1019.80 1020.04 1020.04 1020.16 1020.04 1020.08 1020.28 1020.36 1020.12 1020.12 1020.08 1020.12 1020.32 1020.40
1017.96 1018.00 1018.12 1018.32 1018.40 1018.52 1018.72 1018.80 1018.76 1018.76 1018.80 1018.84 1018.76 1018.64 1018.64 1018.64 1018.76 1018.80 1018.96 1019.12 1019.20 1019.28 1019.44 1019.40 1019.48 1019.48 1019.48 1019.64 1019.76 1019.92 1020.00 1020.16 1020.12 1020.20 1020.40 1020.48 1020.32 1020.12 1020.12 1020.20 1020.36 1020.48
1017.88 1017.92 1018.04 1018.08 1018.28 1018.32 1018.48 1018.56 1018.56 1018.52 1018.56 1018.52 1018.56 1018.72 1018.56 1018.68 1018.72 1018.72 1018.76 1018.88 1019.04 1019.20 1019.32 1019.40 1019.48 1019.56 1019.48 1019.60 1019.80 1019.96 1019.96 1020.00 1020.04 1020.16 1020.40 1020.44 1020.36 1020.36 1020.20 1020.28 1020.36 1020.48
1017.60 1017.64 1017.76 1017.92 1018.12 1018.20 1018.36 1018.40 1018.40 1018.40 1018.32 1018.40 1018.64 1018.52 1018.44 1018.56 1018.60 1018.60 1018.64 1018.72 1018.92 1019.04 1019.12 1019.20 1019.32 1019.40 1019.44 1019.56 1019.88 1020.04 1020.00 1019.88 1020.08 1020.16 1020.32 1020.36 1020.36 1020.52 1020.36 1020.24 1020.32 1020.52
1017.32 1017.56 1017.68 1017.88 1018.08 1018.12 1018.24 1018.20 1018.20 1018.20 1018.12 1018.36 1018.44 1018.40 1018.28 1018.32 1018.48 1018.52 1018.60 1018.68 1018.80 1018.88 1019.00 1019.12 1019.24 1019.32 1019.32 1019.48 1019.72 1019.88 1020.04 1020.00 1019.92 1020.08 1020.20 1020.32 1020.44 1020.40 1020.32 1020.24 1020.40 1020.48
1017.24 1017.28 1017.56 1017.76 1018.00 1017.96 1018.08 1017.96 1017.92 1017.96 1017.92 1018.08 1018.08 1018.12 1018.28 1018.20 1018.20 1018.36 1018.48 1018.64 1018.76 1018.84 1018.92 1019.00 1019.12 1019.20 1019.28 1019.36 1019.52 1019.68 1019.84 1019.96 1019.92 1019.96 1020.00 1020.08 1020.20 1020.20 1020.16 1020.24 1020.32 1020.44
1017.08 1017.16 1017.44 1017.60 1017.68 1017.72 1017.76 1017.72 1017.68 1017.72 1017.72 1017.84 1017.88 1018.04 1018.00 1018.08 1018.20 1018.16 1018.40 1018.56 1018.72 1018.76 1018.84 1018.92 1018.96 1019.00 1019.20 1019.28 1019.32 1019.36 1019.52 1019.68 1019.76 1019.80 1019.88 1019.88 1019.92 1019.92 1019.88 1019.96 1020.08 1020.24
1017.48 1017.76 1017.72 1017.44 1017.44 1017.44 1017.44 1017.40 1017.40 1017.48 1017.56 1017.56 1017.56 1017.76 1017.76 1017.80 1018.00 1018.12 1018.20 1018.40 1018.40 1018.44 1018.52 1018.60 1018.64 1018.76 1018.92 1019.04 1019.12 1019.20 1019.32 1019.44 1019.52 1019.60 1019.68 1019.68 1019.68 1019.72 1019.72 1019.72 1019.84 1019.84
1017.16 1017.16 1017.96 1018.16 1017.28 1017.12 1017.04 1017.12 1017.20 1017.16 1017.28 1017.40 1017.28 1017.40 1017.56 1017.72 1017.76 1017.92 1017.92 1018.04 1018.12 1018.16 1018.28 1018.32 1018.44 1018.56 1018.72 1018.84 1018.92 1019.00 1019.16 1019.32 1019.44 1019.52 1019.56 1019.56 1019.52 1019.48 1019.44 1019.48 1019.52 1019.60
1017.20 1017.32 1017.24 1017.36 1017.08 1016.76 1016.80 1016.80 1016.84 1016.92 1016.92 1016.88 1016.96 1017.28 1017.36 1017.44 1017.56 1017.68 1017.64 1017.72 1017.84 1017.96 1017.96 1018.00 1018.20 1018.40 1018.52 1018.64 1018.76 1018.84 1019.00 1019.16 1019.28 1019.40 1019.48 1019.40 1019.36 1019.32 1019.24 1019.40 1019.52 1019.48
1016.96 1016.96 1016.88 1016.92 1017.00 1016.80 1016.92 1017.04 1016.96 1016.80 1016.72 1016.72 1016.88 1017.00 1017.00 1017.08 1017.16 1017.32 1017.64 1017.84 1017.76 1017.80 1017.88 1017.88 1018.08 1018.24 1018.28 1018.44 1018.68 1018.80 1018.80 1019.00 1019.04 1019.20 1019.28 1019.36 1019.36 1019.44 1019.60 1019.48 1019.48 1019.40
1016.72 1016.76 1016.92 1016.96 1017.16 1016.84 1016.92 1017.04 1017.08 1017.08 1016.96 1016.92 1016.84 1016.76 1016.80 1016.92 1017.04 1017.16 1017.40 1017.64 1017.84 1017.88 1017.88 1017.92 1018.00 1017.96 1018.04 1018.16 1018.24 1018.44 1018.60 1018.64 1018.76 1018.80 1019.48 1020.08 1020.20 1020.12 1019.52 1019.24 1019.12 1019.08
1016.76 1016.68 1016.80 1017.08 1017.12 1016.92 1016.88 1016.92 1017.04 1017.08 1017.08 1017.12 1017.12 1017.04 1017.00 1016.88 1016.92 1017.20 1017.32 1017.40 1017.56 1017.76 1017.92 1018.00 1017.96 1017.96 1018.08 1018.20 1018.28 1018.28 1018.32 1018.48 1018.72 1019.24 1019.52 1019.48 1019.72 1019.92 1019.84 1019.44 1019.16 1019.00
1016.72 1016.64 1016.80 1017.00 1016.96 1016.96 1016.96 1017.00 1017.04 1017.04 1017.08 1017.12 1017.20 1017.24 1017.08 1016.96 1017.08 1017.16 1017.16 1017.20 1017.36 1017.56 1017.80 1017.92 1018.04 1018.08 1018.00 1018.04 1018.16 1018.28 1018.40 1018.68 1018.92 1019.04 1019.28 1019.48 1019.40 1019.64 1019.52 1019.36 1019.28 1019.12
1017.20 1016.84 1016.92 1017.04 1016.96 1016.88 1016.84 1016.96 1017.12 1017.16 1017.16 1017.12 1017.20 1017.16 1017.20 1017.28 1017.20 1017.16 1017.16 1017.08 1017.20 1017.48 1017.68 1017.80 1018.08 1018.40 1018.24 1018.04 1018.08 1018.28 1018.52 1018.40 1018.36 1018.60 1018.96 1019.12 1019.08 1019.16 1019.24 1019.16 1019.04 1019.00
1017.88 1017.88 1017.92 1018.04 1017.72 1017.28 1017.04 1017.00 1017.00 1017.16 1017.16 1017.12 1017.16 1017.20 1017.28 1017.36 1017.40 1017.40 1017.36 1017.32 1017.24 1017.32 1017.56 1017.92 1018.28 1018.56 1018.64 1018.52 1018.24 1018.20 1018.20 1018.20 1018.20 1018.36 1018.52 1018.68 1018.84 1018.80 1018.88 1018.92 1018.92 1018.92
1017.32 1017.28 1017.44 1017.24 1017.08 1017.00 1017.00 1017.04 1016.96 1017.04 1017.16 1017.16 1017.16 1017.28 1017.36 1017.40 1017.40 1017.48 1017.48 1017.44 1017.44 1017.44 1017.72 1018.08 1018.44 1018.72 1018.72 1018.80 1018.60 1018.08 1017.88 1017.88 1018.08 1018.20 1018.32 1018.36 1018.36 1018.40 1018.56 1018.64 1018.68 1018.64
1017.12 1017.32 1017.32 1017.32 1017.40 1017.20 1017.16 1017.36 1017.32 1017.12 1017.08 1017.12 1017.20 1017.28 1017.32 1017.32 1017.36 1017.36 1017.52 1017.60 1017.64 1017.72 1017.92 1018.24 1018.52 1018.56 1018.68 1018.84 1018.72 1018.28 1017.80 1017.84 1018.00 1018.12 1018.16 1018.24 1018.32 1018.36 1018.44 1018.48 1018.56 1018.64
1017.40 1017.52 1017.64 1017.60 1017.40 1017.32 1017.48 1017.84 1017.96 1017.76 1017.32 1017.00 1017.28 1017.40 1017.48 1017.48 1017.60 1017.72 1017.80 1017.88 1018.00 1018.12 1018.28 1018.56 1018.64 1018.72 1018.68 1018.72 1018.68 1018.48 1018.12 1017.92 1018.00 1018.08 1018.12 1018.20 1018.28 1018.28 1018.32 1018.36 1018.48 1018.52
1017.44 1017.60 1017.76 1017.60 1017.36 1017.28 1017.32 1017.40 1017.52 1017.56 1017.44 1017.08 1017.24 1017.48 1017.68 1017.72 1017.84 1017.96 1017.84 1017.92 1018.24 1018.44 1018.56 1018.72 1018.88 1018.92 1018.72 1018.60 1018.52 1018.40 1018.24 1018.04 1017.96 1018.00 1018.16 1018.24 1018.40 1018.40 1018.32 1018.32 1018.40 1018.40
1017.32 1017.60 1018.16 1018.00 1017.84 1017.60 1017.52 1017.60 1017.68 1017.60 1017.40 1017.20 1017.20 1017.28 1017.52 1017.76 1018.04 1018.36 1018.56 1018.28 1018.36 1018.56 1018.64 1018.84 1019.00 1018.96 1018.84 1018.68 1018.52 1018.36 1018.20 1017.96 1017.88 1018.04 1018.28 1018.40 1018.48 1018.64 1018.52 1018.52 1018.52 1018.40
1017.08 1017.76 1018.52 1018.48 1018.08 1017.76 1017.72 1017.72 1017.60 1017.60 1017.56 1017.44 1017.40 1017.40 1017.72 1018.00 1018.24 1018.48 1018.64 1018.80 1018.88 1018.96 1019.08 1019.20 1019.32 1019.36 1019.16 1018.92 1018.64 1018.40 1018.16 1017.92 1017.76 1018.08 1018.36 1018.44 1018.52 1018.56 1018.72 1018.80 1018.92 1019.00
Thickness
5785 5784 5783 5783 5783 5783 5782 5782 5782 5781 5781 5781 5781 5781 5782 5783 5783 5784 5783 5783 5782 5782 5782 5783 5783 5783 5783 5783 5783 5783 5783 5783 5783 5783 5783 5782 5781 5781 5780 5780 5780 5780
5783 5784 5784 5783 5783 5783 5783 5783 5783 5782 5782 5782 5783 5784 5784 5785 5785 5785 5784 5784 5783 5783 5783 5784 5784 5783 5783 5783 5783 5782 5782 5782 5783 5783 5783 5783 5782 5782 5781 5780 5780 5780
5783 5783 5783 5783 5783 5783 5783 5784 5784 5784 5783 5784 5785 5785 5786 5787 5786 5786 5786 5785 5784 5783 5784 5784 5784 5784 5783 5783 5783 5782 5782 5781 5781 5784 5784 5783 5783 5782 5781 5781 5780 5780
5782 5783 5783 5782 5783 5784 5783 5783 5783 5784 5784 5784 5785 5786 5787 5788 5787 5787 5786 5786 5785 5784 5784 5784 5784 5785 5784 5784 5783 5782 5782 5782 5782 5783 5782 5782 5783 5782 5781 5781 5780 5780
5782 5782 5783 5782 5783 5783 5783 5782 5782 5784 5784 5784 5786 5787 5787 5788 5788 5787 5787 5786 5786 5785 5784 5784 5785 5785 5784 5784 5783 5782 5781 5781 5781 5782 5780 5780 5781 5781 5781 5780 5779 5779
5783 5782 5783 5782 5783 5783 5782 5782 5783 5784 5785 5785 5786 5786 5787 5788 5787 5787 5788 5787 5786 5785 5784 5784 5784 5785 5785 5784 5783 5782 5781 5780 5781 5781 5779 5778 5779 5780 5781 5780 5778 5777
5782 5782 5783 5782 5783 5783 5782 5782 5784 5785 5785 5786 5786 5786 5787 5787 5787 5788 5788 5787 5786 5785 5784 5784 5784 5784 5784 5783 5781 5781 5781 5781 5780 5779 5778 5777 5778 5778 5779 5779 5777 5777
5783 5783 5783 5783 5782 5782 5782 5783 5784 5784 5786 5785 5784 5786 5787 5787 5786 5787 5788 5787 5787 5786 5785 5784 5784 5783 5783 5782 5781 5779 5779 5780 5780 5779 5778 5777 5777 5776 5777 5778 5777 5777
5782 5782 5782 5781 5782 5781 5781 5782 5783 5784 5785 5785 5784 5786 5787 5787 5787 5787 5787 5786 5786 5785 5785 5784 5783 5783 5783 5782 5780 5778 5777 5779 5779 5779 5777 5777 5777 5776 5777 5777 5776 5776
5781 5782 5781 5780 5780 5781 5781 5782 5783 5785 5785 5785 5785 5786 5786 5786 5787 5787 5787 5786 5785 5784 5784 5784 5783 5783 5782 5781 5781 5779 5778 5778 5778 5778 5778 5778 5777 5777 5778 5777 5776 5776
5780 5780 5780 5780 5780 5780 5781 5782 5783 5784 5785 5785 5785 5785 5785 5786 5786 5786 5786 5785 5785 5784 5784 5784 5783 5783 5782 5781 5781 5781 5779 5779 5778 5778 5778 5779 5779 5779 5779 5778 5777 5777
5776 5776 5775 5777 5779 5780 5781 5782 5783 5783 5784 5784 5785 5785 5785 5786 5786 5785 5786 5785 5785 5786 5785 5785 5785 5784 5782 5782 5781 5781 5780 5779 5779 5778 5779 5779 5779 5779 5780 5780 5779 5779
5774 5774 5773 5773 5778 5781 5782 5782 5782 5782 5783 5784 5785 5785 5785 5785 5785 5785 5786 5786 5786 5786 5786 5786 5786 5784 5783 5782 5781 5781 5779 5779 5778 5778 5778 5779 5779 5780 5781 5780 5780 5780
5771 5772 5773 5775 5777 5781 5781 5781 5782 5782 5783 5784 5784 5784 5784 5784 5784 5784 5785 5785 5785 5785 5786 5786 5785 5784 5784 5783 5781 5781 5779 5778 5778 5778 5778 5778 5778 5780 5780 5779 5778 5779
5770 5771 5772 5774 5776 5778 5778 5778 5780 5781 5782 5784 5784 5784 5784 5785 5785 5784 5783 5782 5782 5783 5784 5784 5784 5783 5784 5784 5782 5781 5780 5779 5779 5778 5778 5777 5776 5776 5777 5777 5777 5777
5770 5770 5771 5771 5772 5775 5776 5776 5777 5777 5779 5780 5781 5783 5784 5784 5785 5784 5783 5782 5781 5781 5781 5781 5782 5782 5782 5782 5781 5781 5780 5779 5779 5778 5776 5773 5772 5772 5773 5776 5777 5778
5767 5769 5768 5769 5770 5772 5773 5774 5774 5775 5775 5776 5778 5779 5781 5783 5783 5782 5782 5782 5781 5780 5779 5779 5779 5779 5779 5779 5780 5780 5780 5779 5778 5776 5774 5771 5770 5769 5770 5773 5776 5778
5762 5766 5765 5766 5767 5769 5770 5770 5771 5772 5773 5774 5775 5776 5778 5780 5780 5780 5780 5780 5780 5779 5777 5777 5776 5776 5777 5778 5778 5777 5777 5777 5777 5775 5773 5771 5770 5770 5769 5771 5773 5775
5755 5759 5760 5760 5763 5766 5768 5768 5768 5769 5770 5771 5773 5775 5775 5776 5776 5777 5778 5779 5778 5777 5776 5775 5773 5772 5773 5775 5775 5775 5775 5777 5777 5775 5772 5772 5772 5771 5770 5770 5772 5772
5750 5752 5753 5754 5758 5762 5764 5765 5765 5766 5767 5768 5770 5771 5772 5773 5773 5773 5774 5775 5776 5775 5773 5772 5770 5768 5769 5770 5771 5773 5775 5776 5776 5774 5773 5772 5772 5771 5770 5770 5771 5771
5749 5750 5751 5753 5756 5758 5759 5761 5762 5763 5763 5764 5766 5767 5768 5770 5770 5771 5771 5771 5772 5771 5770 5767 5766 5765 5764 5764 5767 5771 5774 5774 5773 5773 5772 5772 5772 5772 5771 5770 5770 5770
5747 5748 5750 5751 5753 5755 5754 5754 5755 5757 5760 5761 5762 5763 5763 5765 5766 5766 5766 5767 5768 5768 5767 5764 5763 5762 5762 5760 5762 5767 5771 5772 5771 5770 5770 5770 5770 5770 5770 5769 5769 5769
5743 5744 5746 5748 5750 5752 5750 5748 5748 5750 5755 5758 5758 5757 5758 5759 5759 5760 5761 5763 5763 5762 5761 5759 5758 5758 5758 5758 5759 5762 5766 5768 5768 5768 5767 5767 5767 5767 5767 5767 5766 5766
5741 5740 5741 5743 5746 5748 5747 5745 5745 5745 5750 5754 5755 5754 5753 5753 5753 5754 5755 5757 5757 5755 5754 5754 5753 5753 5754 5755 5756 5758 5761 5764 5765 5765 5764 5764 5763 5762 5763 5763 5763 5763
5741 5738 5736 5737 5741 5743 5743 5743 5743 5744 5747 5750 5751 5751 5750 5749 5748 5747 5746 5749 5750 5749 5749 5748 5747 5747 5749 5750 5752 5754 5757 5760 5761 5760 5759 5758 5758 5757 5758 5759 5759 5758
5739 5734 5730 5732 5736 5739 5740 5741 5742 5743 5745 5746 5748 5748 5747 5745 5744 5742 5740 5741 5743 5743 5743 5742 5740 5740 5742 5745 5748 5750 5753 5757 5758 5757 5755 5754 5753 5753 5751 5750 5750 5749